Location: Recife
(8.0585°S, 34.8848°W)
Time: 13:35:35
(UTC-03:00)

Tiros 1 - Pass Details

Date: 14 April 2026
Orbit: 618 x 648 km, 48.4° (Epoch: 11 May)

Event Time Altitude Azimuth Distance (km) Brightness Sun altitude
Rises 19:00:12 0° 343° (NNW) 2,937 10.8 -26.0°
Reaches altitude 10° 19:02:50 10° 356° (N) 2,033 9.8 -26.6°
Enters shadow 19:03:37 14° 2° (N) 1,794 9.4 -26.8°
Maximum altitude 19:06:44 26° 52° (NE) 1,275 - -27.6°
Drops below altitude 10° 19:10:38 10° 108° (ESE) 2,043 - -28.5°
Sets 19:13:17 0° 121° (ESE) 2,954 - -29.2°
